User: anonymous   Login
Location: Shandelee
(41.8790°N, 74.8713°W)
Time: 00:02:57
(UTC+00:00)
Language:

COSMO-SKYMED 1 - Orbit

View from above orbital plane
View from above orbital plane
View from above satellite
View from above satellite

Ground track
Ground track

The orbit data is extracted from the following two-line orbital elements,

1 31598U 07023A   21015.79841463 -.00000125  00000-0 -91682-5 0  9990
2 31598  97.8823 201.8742 0001438  85.3494 274.7896 14.82155214736280
Epoch (UTC): 15 January 2021 19:09:43
Eccentricity: 0.0001438
inclination: 97.8823°
perigee height: 621 km
apogee height: 623 km
right ascension of ascending node: 201.8742°
argument of perigee: 85.3494°
revolutions per day: 14.82155214
mean anomaly at epoch: 274.7896°
orbit number at epoch: 73628

The dashed part of the orbit path shows where the satellite is in the earth's shadow,  

DLR